Weather History for KRTN - February, 2014

Change the Weather History Date:

Sunday, February 9, 2014

  Actual Average (KTAD) Record (KTAD)
Temperature  
Mean Temperature 46 °F 34 °F  
Max Temperature 63 °F 49 °F 70 °F (1976)
Min Temperature 25 °F 19 °F -16 °F (2011)
Degree Days  
Heating Degree Days 20 31  
Month to date heating degree days 286  
Since 1 July heating degree days 3568  
Cooling Degree Days 0 0  
Month to date cooling degree days 0  
Year to date cooling degree days 0  
Moisture  
Dew Point 23 °F    
Average Humidity 45    
Maximum Humidity 78    
Minimum Humidity 19    
Precipitation  
Precipitation 0.00 in 0.02 in 0.22 in (1963)
Month to date precipitation 0.14  
Year to date precipitation 0.54  
Sea Level Pressure  
Sea Level Pressure 29.82 in    
Wind  
Wind Speed 9 mph (SW)    
Max Wind Speed 18 mph    
Max Gust Speed 33 mph    
Visibility 10 miles    
Events      
T = Trace of Precipitation, MM = Missing Value Source: NWS Daily Summary

Daily Weather History Graph

Daily Weather History Graph

Search for Another Location

Airport or City:

Trip Planner

Search our weather history database for the weather conditions in past years. The results will help you decide how hot, cold, wet, or windy it might be!

Date:

Astronomy

Feb. 09, 2014 Rise Set
Actual Time 6:52 AM MST 5:32 PM MST
Civil Twilight 6:25 AM MST 5:59 PM MST
Nautical Twilight 5:55 AM MST 6:29 PM MST
Astronomical Twilight 5:25 AM MST 6:59 PM MST
Moon 1:16 PM MST (2/9) 2:57 AM MST (2/9)
Length of Visible Light 11h 33m
Length of Day
10h 39m
Waxing Gibbous, 77% of the Moon is Illuminated
Feb 9
Waxing Gibbous
Feb 14
Full
Feb 22
Last Quarter
Mar 1
New
Mar 8
First Quarter

Hourly Weather History & Observations

Time (MST) Temp. Windchill Dew Point Humidity Pressure Visibility Wind Dir Wind Speed Gust Speed Precip Events Conditions
12:53 AM 35.1 °F 28.6 °F 19.9 °F 54% 29.91 in 10.0 mi WNW 8.1 mph - N/A   Clear
1:53 AM 28.9 °F 23.9 °F 21.0 °F 72% 29.89 in 10.0 mi North 4.6 mph - N/A   Clear
2:53 AM 32.0 °F 26.4 °F 19.9 °F 61% 29.85 in 10.0 mi NNW 5.8 mph - N/A   Clear
3:53 AM 33.1 °F 28.7 °F 21.0 °F 61% 29.86 in 10.0 mi East 4.6 mph - N/A   Clear
4:53 AM 33.1 °F 28.7 °F 21.0 °F 61% 29.86 in 10.0 mi East 4.6 mph - N/A   Clear
5:53 AM 36.0 °F 29.0 °F 21.9 °F 57% 29.86 in 10.0 mi North 9.2 mph - N/A   Clear
6:53 AM 37.0 °F 31.6 °F 23.0 °F 57% 29.86 in 10.0 mi ENE 6.9 mph - N/A   Clear
7:53 AM 43.0 °F - 25.0 °F 49% 29.86 in 10.0 mi North - - N/A   Clear
8:53 AM 48.0 °F - 26.1 °F 42% 29.82 in 10.0 mi ENE 5.8 mph - N/A   Clear
9:53 AM 52.0 °F - 27.0 °F 38% 29.84 in 10.0 mi ENE 6.9 mph - N/A   Clear
10:53 AM 57.0 °F - 26.1 °F 30% 29.83 in 10.0 mi South 6.9 mph - N/A   Clear
11:53 AM 57.9 °F - 23.0 °F 26% 29.79 in 10.0 mi SSE 11.5 mph - N/A   Clear
12:53 PM 61.0 °F - 21.0 °F 21% 29.75 in 10.0 mi South 11.5 mph 23.0 mph N/A   Clear
1:53 PM 63.0 °F - 21.9 °F 21% 29.73 in 10.0 mi South 16.1 mph 21.9 mph N/A   Clear
2:53 PM 63.0 °F - 19.9 °F 19% 29.69 in 10.0 mi WSW 10.4 mph 33.4 mph N/A   Partly Cloudy
3:53 PM 61.0 °F - 21.9 °F 22% 29.72 in 10.0 mi West 18.4 mph 27.6 mph N/A   Scattered Clouds
4:53 PM 59.0 °F - 24.1 °F 26% 29.76 in 10.0 mi West 12.7 mph 23.0 mph N/A   Overcast
5:53 PM 54.0 °F - 25.0 °F 33% 29.78 in 10.0 mi SSW 11.5 mph - N/A   Overcast
6:53 PM 52.0 °F - 26.1 °F 37% 29.79 in 10.0 mi WSW 15.0 mph - N/A   Overcast
7:53 PM 50.0 °F - 25.0 °F 38% 29.78 in 10.0 mi West 10.4 mph - N/A   Clear
8:53 PM 50.0 °F - 25.0 °F 38% 29.79 in 10.0 mi SSW 8.1 mph 20.7 mph N/A   Clear
9:53 PM 34.0 °F 24.6 °F 23.0 °F 64% 29.87 in 10.0 mi West 13.8 mph - N/A   Clear
10:53 PM 30.0 °F 18.7 °F 21.0 °F 69% 29.88 in 10.0 mi WSW 16.1 mph - N/A   Clear
11:53 PM 25.0 °F 12.6 °F 19.0 °F 78% 29.92 in 10.0 mi WSW 15.0 mph - N/A   Clear